PST,Max TemperatureF,Mean TemperatureF,Min TemperatureF,Max Dew PointF,MeanDew PointF,Min DewpointF,Max Humidity, Mean Humidity, Min Humidity, Max Sea Level PressureIn, Mean Sea Level PressureIn, Min Sea Level PressureIn, Max VisibilityMiles, Mean VisibilityMiles, Min VisibilityMiles, Max Wind SpeedMPH, Mean Wind SpeedMPH, Max Gust SpeedMPH,PrecipitationIn, CloudCover, Events, WindDirDegrees
2014-1-1,44,39,34,41,37,33,100,96,92,30.38,30.33,30.26,7,2,0,8,1,9,0.00,7,Fog,263
2014-1-2,40,38,36,39,37,35,100,96,92,30.29,30.18,30.05,4,1,0,7,2,9,0.04,8,Fog-Rain,332
2014-1-3,48,37,26,39,32,25,100,80,60,30.34,30.23,30.10,10,5,0,14,2,17,0.01,3,Fog-Rain,294
2014-1-4,45,34,22,33,26,21,100,81,62,30.44,30.37,30.33,10,4,0,7,1,8,0.00,2,Fog,51
2014-1-5,50,35,20,31,23,18,96,66,36,30.45,30.39,30.28,10,7,1,12,2,14,0.00,0,,321
2014-1-6,42,34,26,35,29,23,92,74,55,30.28,30.24,30.20,10,10,6,7,2,7,0.03,3,Rain,298
2014-1-7,44,40,36,41,38,35,100,95,89,30.19,30.11,30.05,7,3,1,13,1,15,0.36,8,Rain,315
2014-1-8,51,45,39,48,44,38,100,90,80,30.06,29.96,29.82,10,5,0,20,6,26,0.31,7,Fog-Rain,191
2014-1-9,48,41,34,45,40,33,100,90,80,30.09,30.01,29.89,10,7,1,17,7,22,0.07,5,Rain,179
2014-1-10,53,50,46,45,43,41,86,80,74,30.19,30.04,29.76,10,10,7,22,9,27,T,8,Rain,177
2014-1-11,55,49,42,48,42,38,89,78,66,30.03,29.69,29.58,10,8,2,31,12,46,0.84,8,Rain,198
2014-1-12,54,48,41,49,42,37,93,84,74,30.47,30.25,30.07,10,10,6,16,9,23,0.11,8,Rain,204
2014-1-13,56,50,43,45,43,41,92,77,61,30.68,30.60,30.48,10,10,9,15,5,20,T,7,,222
2014-1-14,50,42,34,44,39,34,100,93,86,30.68,30.64,30.58,10,3,0,8,2,9,0.00,4,Fog,40
2014-1-15,41,39,37,40,38,36,100,93,86,30.59,30.55,30.48,8,2,0,7,3,8,0.00,8,Fog,327
2014-1-16,45,38,30,37,33,30,100,88,76,30.49,30.42,30.31,10,2,0,6,2,7,0.00,4,Fog,319
2014-1-17,42,36,29,36,31,27,100,90,79,30.31,30.25,30.21,4,1,0,5,1,7,0.00,4,Fog,337
2014-1-18,41,35,28,35,30,27,100,90,79,30.32,30.25,30.19,6,1,0,6,1,7,0.00,3,Fog,20
2014-1-19,45,36,27,35,30,27,100,85,70,30.28,30.22,30.17,10,3,0,9,1,10,0.00,3,Fog,138
2014-1-20,53,40,27,36,29,25,100,71,41,30.33,30.28,30.27,10,5,0,14,4,17,0.00,2,Fog,311
2014-1-21,46,36,26,33,29,24,100,79,58,30.39,30.34,30.29,10,10,4,9,2,11,0.00,1,,308
2014-1-22,48,42,35,40,36,32,92,84,76,30.40,30.37,30.33,10,10,9,9,3,13,0.00,7,,61
2014-1-23,49,43,36,35,30,28,92,71,49,30.41,30.37,30.33,10,10,10,30,13,39,0.00,0,,61
2014-1-24,56,41,26,31,26,23,92,62,32,30.40,30.36,30.30,10,10,10,15,4,20,0.00,0,,26
2014-1-25,51,38,24,31,27,22,92,67,41,30.43,30.36,30.27,10,10,9,6,1,7,0.00,0,,330
2014-1-26,53,39,24,32,27,23,92,67,41,30.27,30.18,30.10,10,9,4,8,1,9,0.00,0,,115
2014-1-27,40,34,28,36,30,26,92,78,64,30.27,30.22,30.15,10,10,7,7,2,7,0.06,3,Rain,293
2014-1-28,42,40,37,40,37,35,100,88,76,30.28,30.16,29.98,10,7,2,6,2,8,0.33,8,Rain,286
2014-1-29,54,47,40,47,41,38,100,82,63,29.96,29.87,29.75,10,8,2,23,9,31,0.12,8,Rain,203
2014-1-30,50,44,38,40,37,34,100,80,60,30.01,29.98,29.94,10,9,2,16,4,20,0.10,7,Rain,207
2014-1-31,49,42,34,39,37,33,100,83,66,30.17,30.08,30.00,10,8,0,12,4,14,0.03,7,Fog-Rain,202